weather.gov     
National Weather Service

Weather Roundup
NWS Homepage
This page is being discontinued on March 12, 2014.
The same data is available at this site. Please update your bookmarks.
Thank you, and we apologize for the inconvenience.
Please send an email to SR-SRH.Webmaster@noaa.gov with any concerns.


Current Version
Previous Version:    01  02  03  04  05  06  07  08  09  10  11  12  13  14  15  16  17  18  19  20  21  22  23  24  25  26  27  28  29  30  
   31  32  33  34  35  36  37  38  39  40  41  42  43  44  45  46  47  48  49  50  51  52  53  54  55  56  57  58  59  60  
[Printable]
213
NZUS93 KARX 201810
HRRWXR

CURRENT HOURLY OBSERVATIONS ACROSS
MUCH OF THE UPPER MISSISSIPPI VALLEY
NATIONAL WEATHER SERVICE LA CROSSE WI
100 PM CDT MON OCT 20 2014


...SOUTHEAST MINNESOTA...


CITY           SKY/WX    TMP DP  RH WIND       PRES   REMARKS
ROCHESTER      SUNNY     61  43  51 N15G23    29.98F
ROCHESTER/MAYO FAIR      59  40  47 NW6G18    29.97F
WINONA         SUNNY     61  43  51 NW15G24   29.95F
AUSTIN         SUNNY     61  43  51 N10G20    29.98F
ALBERT LEA     SUNNY     63  41  45 NW13G20   29.99F
DODGE CENTER   SUNNY     61  45  55 N15       29.98F
PRESTON        SUNNY     59  44  58 NW14      29.97F
OWATONNA       SUNNY     61  43  51 NW15      29.99F
FARIBAULT      SUNNY     63  43  48 NW12G17   29.99F
$$

...ELSEWHERE IN MINNESOTA...


CITY           SKY/WX    TMP DP  RH WIND       PRES   REMARKS
MINNEAPOLIS    MOSUNNY   61  43  51 NW9       29.99F
INTNL FALLS    CLOUDY    46  36  68 N9        30.04R
DULUTH         CLOUDY    49  40  71 NW12      29.99R
RED WING       SUNNY     63  41  45 NW13G20   29.96F
REDWOOD FALLS  SUNNY     65  40  39 NW12      30.03F
MANKATO        SUNNY     63  39  42 NW14      30.00F
WORTHINGTON    SUNNY     64  39  39 NW9G22    30.06F
FAIRMONT       SUNNY     64  37  36 N16G22    30.02F
$$

...SOUTHWEST WISCONSIN...


CITY           SKY/WX    TMP DP  RH WIND       PRES   REMARKS
LA CROSSE      MOSUNNY   62  43  49 NW12      29.93F
PRAIRIE DU CHI MOSUNNY   64  41  43 NW14G21   29.92F
BOSCOBEL       PTSUNNY   65  43  44 N12G20    29.92F
LONE ROCK      LGT RAIN  66  42  41 N17G23    29.90F
PLATTEVILLE    MOSUNNY   63  44  50 NW15G21   29.92F
FORT MC COY    PTSUNNY   60  39  45 NW12G22   29.93F
CAMP DOUGLAS   PTSUNNY   59  43  55 NW13G20   29.92S
VIROQUA        FAIR      60  43  52 NW15G22   29.93S
WIS DELLS      CLOUDY    57  40  52 N7G20     29.90F
$$

...ELSEWHERE IN WISCONSIN...


CITY           SKY/WX    TMP DP  RH WIND       PRES   REMARKS
MILWAUKEE      MOSUNNY   60  48  64 N8        29.85S
MADISON        MOSUNNY   60  42  51 NW14G23   29.89F
GREEN BAY      CLOUDY    53  44  71 N14       29.88R
EAU CLAIRE     PTSUNNY   58  40  51 N15       29.95F
BLACK RVR FLS  MOCLDY    61  39  43 N12G17    29.93F
MEDFORD        CLOUDY    49  41  74 N12       29.93S
WAUSAU         CLOUDY    51  41  68 NW9       29.90S
WIS RAPIDS     CLOUDY    55  40  56 N9        29.92F
MARSHFIELD     CLOUDY    54  41  61 NW15      29.92S
RICE LAKE      CLOUDY    54  40  59 N8        29.98F
$$

...NORTHEAST IOWA...


CITY           SKY/WX    TMP DP  RH WIND       PRES   REMARKS
DECORAH        SUNNY     61  45  55 NW13G18   29.95F
MASON CITY     SUNNY     65  43  44 NW17G24   30.01F
CHARLES CITY   SUNNY     64  41  42 N17G23    29.98F
OELWEIN        SUNNY     64  43  45 NW20G28   29.96F
$$

...ELSEWHERE IN IOWA...


CITY           SKY/WX    TMP DP  RH WIND       PRES   REMARKS
DES MOINES     SUNNY     68  41  37 NW13      30.03F
IOWA CITY      SUNNY     64  45  49 N17G24    29.98F
FORT DODGE     SUNNY     66  43  42 NW6       30.03F
$$

...NORTHERN ILLINOIS...


CITY           SKY/WX    TMP DP  RH WIND       PRES   REMARKS
CHICAGO-OHARE  MOSUNNY   63  46  54 VRB7      29.84F
CHICAGO-MIDWAY MOSUNNY   64  49  57 NW9       29.84F
MOLINE         SUNNY     65  44  46 N13       29.93F
ROCKFORD       MOSUNNY   63  43  48 N15G24    29.90F
PEORIA         SUNNY     66  45  46 NW13G20   29.91F
$$

NOTE: "FAIR" INDICATES FEW OR NO CLOUDS BELOW 12,000 FEET WITH NO
SIGNIFICANT WEATHER AND/OR OBSTRUCTIONS TO VISIBILITY. WIND
SPEEDS ARE IN MILES-PER-HOUR.




U.S. Dept. of Commerce
NOAA National Weather Service
1325 East West Highway
Silver Spring, MD 20910
E-mail: w-nws.webmaster@noaa.gov
Page last modified: May 16, 2007
NATIONAL WEATHER SERVICE: for Safety, for Work, for Fun - FOR LIFE